Tracking 35055 objects as of 19-Aug-2026
HD Live streaming from Space Station
objects crossing your sky now

COSMOS 425


COSMOS 425 is no longer on orbit


NORAD ID: 5253
Int'l Code: 1971-050A
Launch date: May 29, 1971
Source: Commonwealth of Independent States (former USSR) (CIS)
Launch site: PLESETSK MISSILE AND SPACE COMPLEX (PKMTR)
Decay date: 1980-01-15
Your satellite tracking list
Your tracking list is empty




NASA's NSSDC Master Catalog

Two Line Element Set (TLE):
1 05253U 71050  A 80014.80210147  .08557260 +10066-4 +13851-3 0  9995
2 05253 074.0193 152.6551 0006497 282.7339 078.1531 16.41496199480227
Source of the keplerian elements: AFSPC